Wetbulb
51.81 47.88 43.64 46.76 37.32 34.55 31.30 35.12 34.91 38.97 38.55 40.05 41.07 40.13 39.33 38.77 40.25 35.64 42.81 44.83 50.19 50.29 52.08 53.81 59.27 60.20 60.67 60.89 61.23 62.12 65.03 66.73 68.97 71.17 71.58 71.62 71.73 71.71 71.64 72.37 73.05 73.58 73.77 73.64 73.70 73.76 74.15 73.41 72.88
46.71 46.84 45.31 38.60 33.18 27.03 29.08 33.17 36.60 37.69 39.85 39.36 39.79 39.16 38.80 35.51 39.16 39.94 40.71 44.19 46.93 48.08 49.62 53.25 57.82 58.78 59.31 59.63 60.19 60.56 61.31 63.50 65.56 67.98 70.46 71.27 71.42 71.84 71.71 72.11 72.70 73.31 73.34 73.33 73.48 73.72 73.69 73.25 72.66
43.35 43.96 40.75 35.40 28.64 28.31 30.09 33.52 35.79 37.09 37.72 37.86 36.39 37.90 35.65 35.22 37.11 38.03 40.30 43.51 45.83 45.25 46.88 52.48 55.98 56.97 57.59 58.06 58.71 59.65 60.14 60.78 62.13 64.40 66.87 69.88 70.95 71.22 71.95 72.43 72.69 72.94 72.75 73.10 73.23 73.38 73.52 72.48 72.25
40.33 38.53 34.48 30.85 27.98 31.55 30.61 32.73 34.22 35.01 36.24 38.05 36.06 34.93 35.01 37.11 37.65 38.36 41.51 43.26 42.85 43.28 45.36 50.27 54.23 55.25 56.04 56.49 57.06 57.99 58.51 59.45 59.93 61.32 63.55 65.76 69.04 70.23 71.02 71.50 72.30 72.55 73.44 73.59 73.44 73.27 73.24 71.98 71.84
36.17 33.26 27.91 25.13 27.56 31.33 30.60 34.12 32.70 32.10 32.10 33.18 34.47 33.30 33.86 37.44 39.69 39.63 40.21 42.52 41.35 41.89 43.72 45.38 51.56 52.45 53.44 54.25 55.20 55.89 56.71 57.30 58.38 59.03 60.02 62.40 63.59 66.34 68.78 70.50 71.28 71.71 72.36 72.62 72.50 72.71 72.57 71.54 71.40
32.63 31.13 25.46 24.04 26.03 30.30 30.74 31.79 32.84 32.00 31.32 32.47 32.70 32.36 32.95 37.78 38.08 37.82 39.58 39.34 40.66 40.80 42.86 43.68 46.20 48.73 49.94 51.09 52.32 53.36 54.49 55.36 56.18 56.84 57.46 58.47 60.28 61.90 65.96 68.24 70.03 70.69 71.83 71.87 72.02 71.98 71.34 70.72 70.62
30.97 28.45 24.60 22.88 26.07 27.76 32.17 32.80 30.00 31.49 30.69 32.26 34.77 30.66 31.90 34.78 37.91 38.44 37.63 37.85 38.70 40.17 40.40 40.37 41.08 42.97 45.22 47.14 49.10 50.37 51.51 52.58 53.92 54.71 55.22 55.41 55.94 59.42 60.96 63.38 67.57 69.31 70.61 71.35 71.37 70.60 70.00 70.03 70.14
31.53 30.16 25.46 25.45 27.75 28.58 31.60 32.17 33.01 31.99 32.29 35.31 36.44 31.30 30.19 34.60 38.53 37.90 37.07 36.63 36.61 38.43 38.48 38.35 38.91 39.79 39.79 40.27 45.91 47.42 48.65 50.27 51.32 51.74 51.96 52.36 53.12 55.01 58.66 60.18 64.70 67.73 68.91 69.95 70.68 70.00 69.55 69.64 69.64
32.97 27.41 24.13 27.26 28.26 28.99 30.92 30.86 32.96 34.02 32.12 32.82 33.13 31.56 34.02 37.26 37.87 35.94 33.84 34.72 35.10 37.76 36.68 36.64 37.18 37.91 38.85 40.24 42.12 43.91 45.67 47.53 48.08 48.36 49.22 49.16 49.55 50.97 54.49 57.99 59.76 62.18 66.37 68.05 69.27 69.80 68.88 67.55 66.86
30.75 25.44 28.53 29.83 28.84 28.67 31.02 30.16 30.81 29.85 31.25 31.49 30.43 33.60 35.27 36.26 35.00 33.97 32.98 31.51 32.49 32.80 34.57 35.09 35.28 36.12 37.41 39.84 39.35 40.37 41.96 42.71 43.70 45.39 45.58 47.00 47.31 49.33 51.69 54.73 58.78 61.98 63.50 65.24 67.41 68.17 66.81 64.53 66.64
31.09 28.45 30.95 31.46 32.40 32.72 31.24 29.36 30.51 28.41 28.44 32.11 31.62 32.77 34.20 33.69 32.82 32.86 32.40 32.24 31.67 32.18 33.18 34.54 34.93 35.39 35.38 36.43 38.57 38.65 39.14 39.78 42.34 43.61 44.92 45.56 45.99 46.88 48.75 52.13 56.16 60.42 61.27 64.05 65.50 66.66 67.16 66.63 66.56
28.62 32.32 32.36 34.18 35.56 32.43 29.93 30.85 30.10 30.88 30.84 33.55 33.76 33.96 33.06 32.67 32.53 31.97 31.38 32.23 31.75 31.14 32.62 33.63 34.19 34.18 34.35 35.91 36.05 36.50 37.28 38.67 39.36 41.15 43.16 44.25 44.33 45.23 46.91 49.28 52.26 56.26 60.62 63.46 64.90 66.20 66.59 66.29 66.59
29.89 31.26 34.09 33.83 33.23 31.81 32.60 31.18 30.91 30.75 32.67 32.51 34.12 34.21 32.47 31.87 31.70 31.66 32.09 32.08 31.51 31.01 31.36 32.27 33.10 33.01 34.49 34.46 34.38 34.63 35.76 37.14 38.74 40.60 42.95 43.73 44.17 44.91 46.67 48.53 50.27 53.06 56.69 60.35 64.14 65.17 66.06 65.97 66.18
32.74 33.12 32.89 34.22 33.43 32.82 30.96 29.08 29.96 30.59 30.54 31.33 32.19 31.77 32.36 31.94 31.31 30.17 30.37 30.19 30.31 31.74 31.36 32.28 32.82 33.42 33.58 33.27 33.46 34.31 35.47 36.91 38.55 39.10 41.40 42.39 43.12 43.57 45.23 47.63 49.26 50.46 53.41 56.89 61.64 64.76 65.35 65.64 65.91
33.06 29.05 31.61 32.35 32.72 31.58 31.45 29.42 27.59 30.50 30.83 30.67 29.58 30.15 31.24 32.08 31.25 29.47 29.91 29.43 29.86 30.11 31.65 31.79 32.58 33.37 32.57 32.87 33.66 34.21 34.61 36.59 36.82 38.09 40.42 41.44 42.88 43.58 44.93 46.24 47.89 49.55 51.55 54.88 60.72 63.60 65.03 65.23 65.41
28.21 27.20 24.74 31.73 32.06 31.00 30.03 25.21 31.92 30.22 29.52 29.48 28.94 28.11 29.37 30.64 31.03 29.32 29.20 29.21 29.21 29.62 29.92 31.05 32.74 32.18 32.68 32.39 32.94 33.94 34.77 34.86 35.99 38.15 39.89 41.27 42.36 44.15 44.79 46.39 47.41 49.49 50.75 53.00 59.26 60.24 63.53 63.94 63.88
26.17 21.55 24.52 29.55 32.59 29.16 28.42 25.02 31.74 30.33 28.92 28.53 28.40 27.97 28.26 28.01 27.35 28.07 28.34 27.74 27.61 28.66 29.10 29.15 30.16 30.67 31.70 32.19 32.67 33.48 33.69 34.51 36.46 38.54 39.37 40.70 41.45 42.48 43.59 45.42 47.30 49.06 49.99 52.02 56.59 59.60 59.85 59.66 61.64
22.34 23.00 25.95 26.63 27.45 27.46 26.43 24.99 30.89 31.21 29.34 28.49 27.66 27.31 26.77 26.72 26.40 27.80 28.22 28.02 27.50 27.07 27.91 28.28 29.26 30.05 30.99 31.52 32.17 32.76 33.59 34.15 35.57 36.75 38.58 39.68 40.21 41.08 41.80 43.53 46.16 48.54 49.08 50.23 55.66 58.77 59.03 56.19 49.86
26.07 25.68 24.58 27.23 27.60 25.43 25.84 24.60 28.62 30.40 27.78 27.07 26.29 25.90 25.83 25.57 25.12 26.04 27.19 26.66 26.58 26.94 26.38 27.21 27.83 29.03 29.64 29.52 29.15 31.04 30.36 31.44 34.43 37.11 38.75 38.60 39.51 40.99 41.71 43.05 45.09 47.71 47.78 48.60 52.22 58.34 57.76 53.83 52.49
26.66 26.04 24.53 26.74 28.13 25.22 23.60 22.83 28.00 26.76 25.76 25.69 25.72 25.58 25.54 22.36 22.41 24.10 24.11 24.60 24.88 24.94 25.22 25.91 27.23 28.43 29.31 30.13 30.24 30.83 30.65 32.88 32.68 34.16 35.80 39.33 42.32 44.87 45.56 45.67 45.85 47.07 47.20 48.76 50.00 57.08 56.86 53.54 53.37
26.02 24.96 23.69 22.98 25.99 23.78 21.63 19.43 21.50 24.91 24.97 25.59 24.93 24.43 23.19 22.03 21.43 21.14 22.63 22.43 22.68 22.84 23.64 25.72 26.76 27.77 28.65 29.52 30.18 29.81 31.03 31.48 31.71 34.28 35.48 38.59 40.74 42.48 44.05 44.11 46.79 47.94 49.78 50.01 49.82 53.70 55.57 52.98 53.16
22.00 28.02 26.29 24.72 19.65 15.50 22.90 11.94 21.38 21.87 23.98 25.06 24.95 21.75 20.76 20.51 20.94 21.56 21.78 21.05 20.87 22.95 23.45 24.43 25.47 25.94 27.21 28.69 27.70 27.09 26.41 26.10 29.66 32.81 34.33 36.44 39.27 41.82 41.20 41.04 41.89 44.20 45.82 48.00 49.41 51.37 52.43 55.19 52.76
22.90 27.82 25.08 23.78 17.74 13.61 18.60 8.70 18.73 20.63 22.69 23.14 24.16 22.76 20.48 19.85 19.85 20.32 19.44 22.46 21.41 23.13 21.56 22.28 23.02 24.54 26.38 27.40 27.27 26.80 25.92 27.52 30.99 31.43 32.03 34.53 39.41 40.26 38.71 38.09 39.22 40.24 41.53 43.34 44.93 45.44 47.44 52.42 52.74
28.26 26.89 24.91 22.33 17.89 8.76 14.53 12.99 17.88 17.23 17.70 21.17 20.09 21.05 21.29 21.66 22.02 21.18 21.02 22.30 20.71 21.35 21.13 21.61 22.49 24.03 24.97 26.07 25.99 25.82 25.82 26.80 28.01 28.78 29.79 33.87 37.75 37.54 37.13 35.77 36.68 37.52 37.37 38.39 40.59 43.02 44.89 46.99 50.69
27.54 23.30 14.42 9.68 7.03 11.54 16.84 13.79 19.70 18.81 19.07 17.88 17.82 19.40 17.30 20.12 19.55 18.73 18.44 18.96 19.88 19.58 20.60 21.46 22.47 22.11 23.81 23.88 24.29 24.74 25.90 27.10 26.44 27.28 29.71 31.69 32.95 33.61 33.66 33.50 34.02 34.68 35.47 36.68 38.00 40.80 40.89 41.21 43.00
24.86 21.63 16.28 4.53 6.75 9.98 18.42 9.62 19.02 17.91 13.33 8.82 12.62 10.72 19.17 20.02 19.55 18.51 18.88 18.09 18.13 20.36 20.57 20.87 21.35 21.75 22.25 22.14 22.90 23.69 24.60 26.40 26.55 27.62 28.86 29.87 32.30 31.83 32.23 32.36 32.23 32.82 33.55 34.62 35.74 36.80 36.08 34.84 35.30
23.92 21.95 21.05 7.08 5.13 7.02 8.83 15.99 21.73 22.59 16.59 12.79 14.34 19.71 18.96 17.91 17.35 16.08 18.13 16.97 16.98 17.62 19.23 20.05 20.33 20.97 20.57 20.91 22.64 21.85 22.85 23.75 24.20 25.52 27.43 28.85 30.18 30.89 30.64 30.04 29.93 29.87 31.75 32.19 32.18 32.78 33.03 32.76 32.54
24.63 25.44 14.85 12.63 4.56 1.92 9.43 8.00 12.59 14.44 14.59 15.26 14.02 18.30 17.14 17.11 16.69 16.64 16.14 16.43 17.20 17.67 17.93 18.58 18.72 16.02 15.68 18.92 21.04 23.07 21.02 22.65 22.16 23.22 25.55 26.58 27.13 27.58 27.75 27.63 27.99 28.27 28.76 29.48 30.69 30.19 31.08 31.83 31.59
21.13 18.26 19.34 16.81 10.05 2.49 1.95 10.95 13.87 13.97 12.20 14.38 17.22 18.82 14.27 13.88 12.46 13.74 14.61 15.08 13.29 12.68 11.89 13.30 13.73 12.04 15.59 17.26 19.35 20.27 19.91 20.82 20.64 23.47 24.87 24.98 25.39 25.46 25.29 25.86 26.01 26.42 27.07 28.23 29.18 29.10 29.82 30.13 29.74
22.73 14.06 15.76 10.21 6.47 1.17 5.07 12.52 8.85 9.56 4.98 6.38 16.06 19.00 13.96 13.87 11.62 11.92 12.15 9.67 8.61 8.78 9.65 10.22 10.04 11.12 15.44 17.23 18.93 20.30 20.64 17.57 16.17 19.95 24.12 25.16 25.06 25.86 25.60 25.70 25.69 25.68 26.01 26.80 26.56 26.01 26.67 27.05 26.87
MSLP
1013.76 1013.56 1013.65 1013.84 1015.48 1016.05 1015.26 1014.15 1013.45 1012.84 1012.53 1012.42 1012.54 1012.99 1013.84 1014.81 1015.68 1017.14 1017.53 1017.51 1017.31 1017.31 1017.04 1016.58 1016.04 1015.74 1015.42 1014.95 1014.56 1014.10 1013.73 1013.61 1013.25 1012.64 1012.31 1012.26 1012.18 1012.21 1012.15 1012.21 1012.21 1012.23 1012.45 1012.62 1012.87 1013.10 1013.15 1013.41 1013.87
1013.94 1013.60 1014.09 1015.18 1016.16 1016.38 1015.07 1013.86 1013.28 1012.81 1012.80 1012.89 1013.29 1014.03 1014.83 1015.97 1016.43 1017.22 1017.67 1017.72 1017.60 1017.56 1017.28 1016.90 1016.55 1016.24 1015.81 1015.48 1015.10 1014.80 1014.46 1014.12 1013.78 1013.21 1012.66 1012.33 1012.19 1012.14 1012.19 1012.25 1012.31 1012.38 1012.46 1012.62 1012.87 1012.93 1013.21 1013.32 1013.48
1013.91 1014.05 1015.12 1015.94 1016.55 1015.93 1014.80 1013.59 1013.26 1013.07 1012.98 1013.25 1014.22 1015.16 1016.17 1017.00 1017.31 1017.69 1017.98 1017.95 1017.92 1017.80 1017.53 1017.29 1016.90 1016.60 1016.28 1015.98 1015.63 1015.29 1015.02 1014.60 1014.16 1013.84 1013.34 1012.71 1012.35 1012.20 1012.23 1012.19 1012.26 1012.30 1012.35 1012.49 1012.69 1012.90 1013.13 1013.42 1013.50
1014.27 1015.01 1016.36 1016.38 1016.33 1015.14 1014.39 1013.64 1013.41 1013.41 1013.37 1013.59 1014.49 1015.99 1017.05 1017.63 1017.78 1018.09 1018.13 1017.98 1018.07 1018.10 1017.93 1017.58 1017.15 1016.85 1016.54 1016.26 1015.94 1015.71 1015.50 1015.16 1014.69 1014.17 1013.78 1013.33 1012.79 1012.55 1012.25 1012.32 1012.23 1012.15 1012.10 1012.27 1012.46 1012.68 1012.98 1013.33 1013.52
1015.09 1016.17 1017.02 1016.93 1015.98 1014.88 1014.33 1013.95 1013.82 1013.86 1013.92 1014.30 1014.84 1016.32 1017.42 1017.83 1018.12 1018.32 1018.22 1017.98 1018.07 1018.16 1017.95 1017.80 1017.40 1017.13 1016.92 1016.61 1016.28 1015.95 1015.66 1015.44 1015.10 1014.75 1014.29 1013.81 1013.45 1013.06 1012.80 1012.41 1012.23 1012.16 1012.04 1012.08 1012.30 1012.45 1012.67 1013.07 1013.46
1016.10 1016.95 1017.53 1017.13 1015.94 1014.99 1014.59 1014.36 1014.26 1014.37 1014.45 1014.89 1015.71 1016.85 1017.64 1017.92 1018.12 1018.48 1018.47 1018.47 1018.44 1018.34 1018.22 1018.05 1017.86 1017.51 1017.25 1016.95 1016.66 1016.35 1015.99 1015.73 1015.37 1015.05 1014.66 1014.31 1013.95 1013.47 1013.01 1012.56 1012.29 1012.20 1012.11 1011.96 1012.05 1012.18 1012.40 1012.74 1013.10
1016.32 1017.25 1017.24 1016.66 1015.84 1015.35 1014.73 1014.60 1014.76 1014.91 1015.12 1015.39 1015.99 1017.14 1017.76 1018.00 1018.11 1018.41 1018.53 1018.63 1018.58 1018.49 1018.41 1018.36 1018.21 1017.93 1017.67 1017.28 1016.95 1016.71 1016.34 1016.02 1015.64 1015.32 1014.99 1014.65 1014.26 1013.73 1013.24 1012.91 1012.50 1012.24 1011.93 1011.88 1011.86 1011.93 1012.12 1012.42 1012.78
1016.41 1017.08 1017.09 1016.37 1015.75 1015.15 1014.83 1014.93 1015.06 1015.33 1015.43 1015.68 1015.97 1016.92 1017.49 1017.53 1018.01 1018.45 1018.67 1018.80 1018.82 1018.79 1018.82 1018.71 1018.31 1017.97 1017.78 1017.56 1017.22 1016.97 1016.61 1016.34 1015.97 1015.58 1015.15 1014.83 1014.40 1013.93 1013.39 1012.96 1012.52 1012.27 1011.94 1011.72 1011.68 1011.83 1011.94 1012.17 1012.41
1016.12 1017.02 1017.10 1016.06 1015.65 1015.14 1015.21 1015.37 1015.45 1015.50 1015.80 1016.08 1016.55 1016.85 1017.23 1017.51 1018.10 1018.51 1018.82 1019.05 1019.14 1019.01 1018.96 1018.97 1018.89 1018.64 1018.40 1017.83 1017.37 1017.29 1016.96 1016.59 1016.29 1015.89 1015.42 1014.98 1014.57 1014.12 1013.63 1013.12 1012.76 1012.39 1011.94 1011.74 1011.41 1011.48 1011.69 1011.90 1012.12
1016.28 1016.94 1016.05 1015.43 1015.30 1015.42 1015.54 1015.64 1015.71 1015.97 1016.18 1016.51 1017.02 1017.37 1017.54 1017.84 1018.17 1018.47 1018.76 1019.02 1019.29 1019.42 1019.44 1019.42 1019.25 1019.08 1018.76 1018.18 1017.83 1017.51 1017.19 1016.94 1016.58 1016.21 1015.86 1015.34 1014.87 1014.36 1013.91 1013.37 1012.85 1012.25 1011.84 1011.57 1011.33 1011.09 1011.22 1011.58 1012.02
1016.28 1016.30 1015.77 1015.44 1015.39 1015.60 1015.90 1016.09 1016.02 1016.25 1016.38 1016.11 1016.34 1017.17 1017.59 1017.83 1018.08 1018.28 1018.46 1018.67 1019.06 1019.36 1019.47 1019.44 1019.32 1019.18 1018.97 1018.64 1018.31 1018.00 1017.50 1017.07 1016.64 1016.31 1015.96 1015.62 1015.05 1014.50 1013.98 1013.39 1012.86 1012.22 1011.66 1011.36 1011.17 1010.91 1010.85 1011.25 1011.59
1016.22 1015.84 1015.86 1015.65 1015.66 1015.98 1016.21 1016.22 1016.32 1016.14 1015.51 1015.53 1016.01 1016.52 1017.41 1017.87 1018.13 1018.34 1018.63 1018.88 1019.13 1019.30 1019.39 1019.39 1019.39 1019.33 1019.13 1018.94 1018.71 1018.35 1017.91 1017.28 1016.80 1016.41 1016.07 1015.68 1015.22 1014.69 1014.09 1013.59 1012.95 1012.46 1011.71 1011.22 1010.78 1010.65 1010.50 1010.71 1011.07
1016.24 1015.98 1015.92 1015.78 1016.01 1016.18 1016.29 1016.35 1016.52 1015.59 1015.55 1015.88 1016.29 1016.82 1017.35 1017.87 1018.13 1018.39 1018.68 1019.01 1019.15 1019.36 1019.49 1019.46 1019.36 1019.23 1019.01 1018.89 1018.67 1018.32 1017.92 1017.45 1016.88 1016.31 1015.93 1015.73 1015.32 1014.82 1014.13 1013.49 1012.93 1012.31 1011.80 1011.12 1010.65 1010.38 1010.29 1010.26 1010.48
1016.48 1016.34 1016.21 1015.96 1016.03 1016.15 1016.40 1016.53 1016.70 1015.23 1015.30 1016.10 1016.59 1016.90 1017.25 1017.64 1017.97 1018.47 1018.80 1019.00 1019.24 1019.38 1019.39 1019.33 1019.19 1018.95 1018.77 1018.52 1018.28 1018.04 1017.71 1017.25 1016.76 1016.30 1015.82 1015.64 1015.34 1014.83 1014.08 1013.47 1012.84 1012.20 1011.60 1011.04 1010.59 1009.81 1009.74 1009.66 1009.85
1016.67 1016.79 1016.28 1015.83 1015.93 1016.27 1016.44 1016.49 1015.69 1015.19 1015.70 1016.28 1016.72 1016.99 1017.24 1017.42 1017.85 1018.42 1018.91 1019.23 1019.33 1019.34 1019.22 1019.12 1018.85 1018.65 1018.58 1018.28 1017.90 1017.59 1017.38 1017.04 1016.73 1016.16 1015.53 1015.25 1015.05 1014.56 1014.06 1013.36 1012.68 1012.03 1011.38 1010.93 1010.27 1009.68 1009.18 1009.25 1009.07
1016.87 1017.03 1016.81 1015.96 1016.15 1016.50 1016.76 1015.96 1014.48 1014.97 1015.85 1016.36 1016.79 1017.15 1017.31 1017.46 1017.88 1018.53 1018.95 1019.17 1019.28 1019.17 1019.13 1018.99 1018.76 1018.52 1018.39 1018.13 1017.77 1017.37 1016.98 1016.75 1016.42 1015.94 1015.34 1014.88 1014.68 1014.28 1013.74 1013.18 1012.34 1011.69 1011.24 1010.71 1010.21 1009.67 1008.92 1008.81 1008.74
1017.35 1017.24 1016.93 1016.27 1016.32 1016.72 1017.07 1016.07 1014.66 1015.21 1016.04 1016.30 1016.62 1016.93 1017.23 1017.70 1018.20 1018.54 1018.79 1018.90 1018.97 1019.07 1019.02 1018.88 1018.80 1018.67 1018.42 1018.01 1017.60 1017.15 1016.74 1016.38 1015.97 1015.46 1014.97 1014.59 1014.25 1013.92 1013.43 1012.82 1012.06 1011.45 1011.05 1010.46 1010.07 1009.53 1009.04 1008.86 1008.58
1017.09 1017.20 1016.99 1016.90 1016.96 1017.14 1017.25 1016.30 1014.99 1015.34 1015.95 1015.95 1016.32 1016.59 1017.10 1017.66 1017.92 1018.26 1018.57 1018.83 1018.97 1019.14 1019.17 1019.11 1018.86 1018.54 1018.32 1018.00 1017.49 1016.86 1016.36 1015.99 1015.61 1015.27 1014.69 1014.23 1013.89 1013.47 1013.03 1012.38 1011.70 1011.06 1010.69 1010.12 1009.80 1009.31 1008.98 1009.38 1009.28
1016.85 1017.02 1017.09 1017.09 1017.38 1017.76 1017.12 1016.69 1015.12 1015.12 1015.53 1015.78 1016.01 1016.48 1016.86 1017.44 1018.02 1018.45 1018.76 1018.93 1019.03 1019.09 1019.17 1019.18 1019.14 1018.89 1018.60 1018.22 1017.67 1016.79 1016.37 1015.97 1015.39 1014.83 1014.34 1013.86 1013.40 1012.81 1012.35 1011.81 1011.18 1010.62 1010.26 1009.77 1009.55 1009.22 1008.65 1009.43 1009.60
1017.19 1017.40 1017.32 1017.32 1017.94 1018.36 1017.63 1016.73 1014.91 1014.94 1015.08 1015.40 1015.80 1016.31 1016.80 1017.75 1018.37 1018.62 1018.86 1019.09 1019.27 1019.39 1019.39 1019.26 1019.16 1018.98 1018.67 1018.44 1017.99 1017.48 1016.63 1015.72 1015.15 1014.66 1014.14 1013.32 1012.71 1012.01 1011.41 1011.03 1010.56 1010.10 1009.75 1009.39 1009.19 1008.85 1008.66 1009.07 1009.25
1017.41 1017.63 1017.83 1018.56 1018.53 1018.49 1018.70 1017.03 1015.64 1015.04 1015.12 1015.33 1015.89 1016.32 1016.98 1017.80 1018.48 1018.81 1019.06 1019.26 1019.41 1019.57 1019.56 1019.42 1019.21 1018.89 1018.58 1018.30 1017.85 1017.38 1016.65 1015.69 1014.84 1014.13 1013.63 1013.15 1012.58 1011.98 1011.32 1010.91 1010.08 1009.48 1009.13 1009.06 1008.94 1008.84 1008.29 1008.58 1009.01
1017.92 1017.81 1018.44 1019.32 1019.86 1020.56 1020.00 1019.12 1016.60 1015.63 1015.44 1015.61 1016.12 1016.90 1017.48 1018.06 1018.55 1019.03 1019.30 1019.44 1019.65 1019.68 1019.70 1019.59 1019.32 1018.91 1018.46 1018.15 1017.96 1017.57 1016.91 1015.98 1015.09 1014.21 1013.50 1012.90 1012.21 1011.61 1011.30 1010.97 1010.64 1009.76 1009.23 1009.16 1008.93 1008.84 1008.53 1007.89 1008.33
1018.04 1018.64 1019.08 1020.01 1021.19 1021.94 1021.35 1021.44 1016.79 1016.45 1016.05 1015.89 1016.36 1017.20 1017.80 1018.50 1018.92 1019.18 1019.47 1019.65 1019.75 1019.79 1019.75 1019.62 1019.30 1018.90 1018.45 1018.11 1017.84 1017.45 1016.80 1016.10 1015.05 1014.41 1013.70 1012.93 1011.99 1011.37 1011.28 1011.23 1011.06 1010.45 1009.57 1009.44 1009.32 1009.20 1008.61 1008.22 1007.71
1018.66 1019.30 1019.82 1020.94 1022.15 1022.74 1021.82 1021.75 1018.09 1017.37 1016.94 1016.68 1017.17 1017.61 1018.22 1018.74 1019.05 1019.33 1019.50 1019.69 1019.75 1019.65 1019.52 1019.37 1019.10 1018.71 1018.38 1017.96 1017.60 1017.25 1016.78 1016.03 1015.16 1014.52 1013.91 1013.00 1012.08 1011.81 1011.51 1011.43 1011.26 1011.06 1009.94 1009.65 1009.81 1009.69 1009.03 1008.78 1008.80
1019.28 1020.03 1020.95 1022.32 1023.05 1022.50 1022.00 1021.91 1017.96 1017.11 1017.29 1017.74 1018.17 1018.31 1018.68 1019.19 1019.44 1019.56 1019.78 1019.85 1019.77 1019.62 1019.44 1019.28 1018.90 1018.54 1018.12 1017.73 1017.35 1016.96 1016.51 1015.83 1015.25 1014.68 1013.98 1013.22 1012.47 1012.06 1011.82 1011.58 1011.59 1011.57 1010.57 1009.71 1009.69 1009.68 1009.35 1009.32 1009.61
1019.74 1020.26 1020.95 1022.38 1023.38 1023.07 1022.40 1021.06 1017.64 1017.11 1017.66 1018.35 1018.96 1019.14 1019.24 1019.40 1019.61 1019.76 1019.82 1019.93 1019.86 1019.56 1019.41 1019.19 1018.96 1018.48 1017.95 1017.53 1017.01 1016.57 1016.21 1015.64 1015.18 1014.71 1014.13 1013.38 1012.64 1012.19 1011.83 1011.42 1011.99 1011.99 1010.73 1010.39 1010.01 1009.97 1009.60 1010.58 1010.80
1020.51 1020.87 1021.32 1022.78 1024.15 1024.18 1022.09 1020.00 1017.32 1017.48 1018.31 1018.87 1019.16 1019.41 1019.31 1019.61 1019.70 1019.83 1020.03 1020.13 1020.05 1019.85 1019.49 1019.27 1018.96 1018.45 1017.99 1017.41 1016.76 1016.35 1015.90 1015.51 1015.02 1014.60 1014.11 1013.41 1012.94 1012.50 1012.23 1012.37 1011.73 1011.71 1011.00 1010.60 1010.26 1010.41 1010.59 1010.49 1011.03
1021.00 1021.32 1022.16 1023.06 1024.38 1024.53 1022.49 1021.68 1019.88 1018.77 1019.37 1019.40 1019.65 1019.42 1019.52 1019.77 1020.00 1020.24 1020.39 1020.39 1020.24 1019.98 1019.64 1019.35 1019.05 1018.61 1018.03 1017.33 1016.67 1016.07 1015.77 1015.33 1014.88 1014.49 1013.90 1013.34 1013.05 1012.62 1012.44 1011.57 1011.70 1012.42 1011.25 1010.87 1010.75 1010.59 1011.51 1011.44 1011.43
1021.64 1021.87 1022.69 1023.47 1024.47 1025.19 1024.75 1020.47 1018.58 1019.19 1019.75 1019.92 1019.70 1019.57 1019.86 1020.11 1020.49 1020.71 1020.78 1020.75 1020.57 1020.21 1019.83 1019.52 1019.12 1018.60 1017.96 1017.32 1016.71 1016.23 1015.81 1015.32 1014.85 1014.41 1013.91 1013.46 1013.01 1012.76 1012.70 1012.71 1012.60 1011.67 1011.29 1010.34 1011.02 1010.58 1011.68 1012.10 1011.42
1021.79 1022.34 1023.05 1024.09 1025.37 1025.92 1025.33 1021.21 1018.44 1019.36 1020.09 1020.10 1019.61 1019.67 1020.01 1020.45 1020.78 1021.13 1021.23 1021.10 1020.90 1020.58 1020.00 1019.63 1019.21 1018.69 1018.00 1017.28 1016.76 1016.21 1015.76 1015.34 1014.94 1014.48 1013.96 1013.58 1013.19 1013.06 1012.94 1012.66 1012.39 1012.06 1011.30 1011.36 1010.81 1011.39 1012.35 1012.68 1012.68
Wind_Speed
7 6 2 5 5 5 4 5 1 1 2 1 2 3 7 4 3 4 5 7 4 6 6 7 18 19 20 22 22 23 22 22 20 19 10 6 5 5 5 5 5 9 13 15 16 16 15 14 14
5 3 5 3 5 2 6 4 4 2 2 4 5 2 6 3 3 5 4 7 7 7 6 8 17 19 20 21 21 21 22 21 20 21 18 14 8 7 7 8 8 9 13 15 16 17 15 14 17
2 4 5 5 3 6 6 4 4 2 3 2 4 6 2 4 2 3 3 3 7 7 7 9 17 18 19 20 21 21 22 22 21 19 20 18 15 9 9 9 10 11 14 16 18 17 16 14 15
3 5 5 5 6 6 4 2 3 3 1 5 4 6 3 1 1 3 3 5 7 6 5 10 16 17 18 19 20 20 21 22 22 21 19 20 18 16 11 11 12 12 13 15 17 17 17 15 15
5 4 4 1 5 4 1 2 2 2 1 3 3 4 5 1 5 5 6 6 8 6 6 7 16 17 18 18 19 20 21 21 21 21 21 19 19 18 15 13 14 14 12 14 17 18 19 18 15
5 4 4 4 5 1 2 1 3 3 1 2 5 6 5 3 4 4 5 7 6 6 5 7 13 16 18 18 17 19 20 21 21 21 22 21 20 18 17 14 14 17 15 15 16 19 19 18 18
7 5 4 3 4 2 5 3 2 5 3 4 7 6 1 3 5 6 6 6 6 6 6 6 5 9 14 16 16 18 19 20 20 20 20 21 21 18 17 17 16 15 18 17 16 16 18 19 17
6 5 3 5 5 5 3 2 1 3 5 2 4 6 5 6 6 7 6 5 5 5 5 7 8 10 10 7 13 18 19 18 20 20 20 20 19 19 17 15 14 17 15 19 17 16 14 16 17
4 4 3 5 6 3 2 4 2 1 2 2 2 1 3 7 7 5 2 3 4 6 6 6 6 8 9 10 10 12 16 18 17 16 19 15 8 11 13 15 16 20 17 16 19 17 15 14 15
5 4 8 3 3 4 4 2 3 1 4 4 1 1 3 5 4 5 4 2 1 2 4 5 6 6 7 8 9 9 9 6 8 7 9 8 10 8 12 11 15 15 14 15 17 20 16 11 7
3 5 3 3 3 4 3 2 2 3 6 9 10 8 7 5 4 4 2 2 1 1 2 5 6 6 7 6 5 5 6 6 5 8 7 8 8 7 6 5 6 7 7 6 8 9 9 8 6
2 5 3 2 3 3 3 2 5 9 8 1 8 9 8 8 7 6 5 4 2 2 4 6 6 5 5 3 4 5 6 7 7 7 9 7 6 7 7 6 6 6 5 8 6 5 8 11 11
3 2 2 2 3 5 2 8 8 9 9 3 5 8 10 8 7 5 6 4 2 2 3 4 6 5 4 3 3 4 5 6 8 8 7 6 7 8 8 8 6 6 6 6 8 7 7 11 13
2 3 6 6 5 4 5 3 4 4 2 7 7 9 8 9 9 5 4 3 0 2 3 3 4 4 5 5 5 4 4 6 6 8 8 8 7 8 9 8 8 7 6 7 8 8 9 10 12
1 6 6 6 4 5 4 7 12 4 3 6 9 8 8 9 8 8 6 5 2 1 2 4 5 5 6 6 6 5 4 6 6 8 10 9 8 9 10 8 9 8 5 9 8 9 10 9 9
1 1 4 1 5 1 2 9 4 4 7 10 9 9 8 6 6 6 6 5 4 2 1 3 6 6 6 7 6 6 5 5 7 7 8 9 10 10 10 9 8 8 7 5 7 5 8 10 11
2 4 4 7 4 3 4 8 7 5 6 10 9 9 8 5 5 5 6 4 2 0 3 5 5 5 7 7 7 7 7 5 6 7 6 7 11 11 9 8 9 9 8 5 6 6 3 3 8
6 4 4 5 1 1 6 17 21 9 8 13 10 9 8 7 8 6 4 1 2 1 3 5 6 8 8 7 7 6 5 4 6 6 7 9 9 12 10 9 11 8 8 5 5 9 3 2 7
1 3 5 2 2 2 9 12 22 11 8 10 9 8 9 8 7 5 2 1 3 4 5 5 5 6 6 6 6 4 5 7 6 6 10 11 11 12 11 9 10 8 7 6 6 5 6 2 5
3 3 5 4 3 2 6 16 23 9 5 4 6 8 8 5 5 4 2 3 3 4 6 6 6 6 5 5 6 5 7 7 7 8 10 11 11 11 10 12 10 9 6 7 5 7 4 2 6
4 4 2 5 6 2 8 10 6 3 2 2 2 1 4 8 7 4 5 5 3 5 6 6 6 7 7 8 5 7 8 8 7 7 8 8 11 14 7 10 7 6 5 5 3 5 7 6 5
2 2 3 0 5 4 5 9 9 4 7 4 5 4 5 6 3 4 5 4 4 5 5 6 7 9 9 6 7 9 8 9 8 8 9 10 10 6 7 9 10 5 2 3 1 2 1 3 7
5 1 3 3 3 5 1 3 11 5 7 4 6 7 7 5 4 6 5 3 4 5 5 5 7 8 8 8 7 7 11 8 8 9 12 12 10 5 6 8 9 7 3 3 4 4 3 2 1
5 3 4 5 3 2 2 4 9 4 6 3 1 4 6 6 5 5 3 3 4 5 6 6 8 7 8 7 8 8 12 11 9 10 9 8 5 5 5 6 7 8 4 3 3 3 2 4 3
5 3 4 6 3 6 2 1 12 7 5 5 5 6 4 5 5 4 5 5 6 6 6 7 7 10 8 8 8 8 10 10 12 11 8 8 6 3 4 5 6 6 5 4 5 3 3 4 4
4 5 5 7 3 5 1 8 9 6 4 5 5 4 6 6 5 4 4 5 6 9 8 8 8 10 9 9 9 7 8 6 7 8 8 7 5 4 4 4 5 6 3 2 3 3 3 2 3
1 3 2 8 2 3 3 8 10 3 5 4 7 5 8 6 5 4 5 5 6 6 7 7 9 9 8 9 7 7 5 6 6 7 8 6 4 4 3 4 2 5 3 2 3 2 4 3 1
2 2 2 3 0 4 5 7 8 5 4 5 6 7 7 4 4 3 5 5 5 6 7 7 7 7 7 7 6 6 5 5 5 5 5 5 4 3 4 5 4 5 2 1 2 5 2 2 3
2 2 2 3 4 6 3 10 9 8 6 6 8 6 6 5 4 3 5 5 5 6 5 6 6 6 7 6 5 5 5 5 4 3 3 3 3 3 3 1 1 3 3 7 2 8 5 1 5
2 5 3 6 5 1 4 12 3 5 5 3 11 8 4 3 3 4 5 6 6 6 6 5 6 6 6 5 5 5 4 4 3 3 3 4 3 3 2 3 3 3 7 5 7 8 5 3 4
Wind_Direction
335 327 77 42 65 63 266 260 258 120 92 48 53 117 128 52 66 169 185 22 117 37 1 359 23 22 22 19 18 16 14 12 3 8 327 263 230 204 199 211 203 176 181 190 188 186 179 174 175
330 355 41 78 95 107 259 248 210 184 136 106 83 80 34 80 55 118 107 356 52 35 6 18 26 21 20 19 16 15 11 11 5 0 356 349 265 227 212 212 208 203 192 194 195 182 177 169 161
320 37 90 104 125 193 219 211 167 103 37 119 96 53 68 115 67 99 15 60 69 37 17 23 25 20 19 16 14 13 8 5 3 358 355 351 351 267 234 215 215 207 203 202 197 187 177 177 166
66 13 33 99 218 250 218 190 170 137 51 54 122 79 63 330 72 61 60 95 83 56 34 22 27 22 18 13 9 9 4 1 357 357 353 352 351 352 285 245 224 219 210 206 199 194 183 181 175
38 54 71 139 248 263 264 181 126 125 294 56 13 172 136 43 96 80 68 55 62 38 29 23 24 20 16 12 7 4 359 357 355 351 350 348 346 341 323 307 249 231 221 217 214 204 196 179 177
48 95 73 221 245 248 254 285 156 153 341 355 73 123 215 111 136 101 82 71 53 56 29 27 24 18 13 8 5 2 356 351 350 348 347 344 343 333 326 314 307 250 229 221 221 215 203 186 177
115 96 210 216 236 229 217 146 179 171 161 248 139 145 231 187 165 123 103 76 53 53 41 19 13 14 14 5 360 358 352 346 344 344 343 343 339 334 329 330 314 297 252 234 226 232 213 194 182
104 94 176 244 202 237 177 149 107 152 235 101 153 209 231 201 158 131 96 73 47 54 54 22 8 7 0 350 359 352 347 345 341 340 341 339 337 337 329 321 325 311 293 251 234 228 218 201 191
133 70 222 247 168 195 179 167 200 293 192 203 356 156 139 131 126 121 109 39 25 17 26 25 14 2 353 341 350 349 344 343 340 336 333 337 332 327 327 322 311 303 299 289 243 225 221 208 191
95 139 217 216 179 183 174 199 189 178 212 235 180 314 148 141 158 157 156 159 110 33 357 18 11 3 351 343 341 342 338 330 327 327 324 327 319 315 317 311 302 294 281 281 274 236 218 203 204
163 205 221 234 171 152 182 270 227 195 242 220 207 185 193 181 168 172 175 135 79 37 19 11 5 356 346 339 343 338 332 327 321 323 327 316 318 314 309 307 308 308 288 262 260 253 221 196 191
207 234 236 230 172 139 200 177 263 204 225 174 203 179 169 190 204 197 202 199 161 41 5 356 357 338 323 329 330 322 321 320 319 316 314 322 318 314 309 300 298 302 300 293 249 244 224 207 203
217 266 268 189 185 242 170 227 232 250 240 236 202 158 182 195 205 206 180 163 141 37 5 340 326 319 322 310 286 296 303 309 308 310 309 316 313 307 307 300 293 288 297 296 273 238 221 210 200
325 296 274 271 233 232 201 252 126 264 203 210 195 205 204 196 191 174 179 178 239 3 359 333 314 324 331 321 304 289 297 297 305 305 299 307 303 300 297 297 295 291 290 295 286 236 226 211 201
348 314 309 230 214 215 178 274 229 184 151 220 222 223 221 218 186 185 182 178 199 233 321 334 326 346 325 322 318 315 296 311 296 296 295 301 300 296 293 291 291 283 281 291 286 271 223 223 211
342 86 333 96 144 196 148 264 259 167 170 229 227 239 235 219 184 146 156 169 185 187 302 313 333 329 318 317 312 303 304 296 288 283 281 293 297 294 298 290 283 286 283 279 281 282 256 231 207
356 247 214 313 186 130 191 268 260 159 194 242 237 236 230 203 142 157 167 165 154 122 335 330 326 314 313 308 303 295 293 281 284 285 269 286 297 295 288 289 284 283 280 270 272 256 251 284 210
202 222 238 244 337 241 259 260 273 255 220 245 241 234 226 205 200 176 163 141 164 226 322 322 325 321 317 310 303 295 280 299 295 297 295 293 294 290 284 280 280 275 274 270 264 244 210 66 111
108 216 242 243 358 297 250 271 275 279 243 259 252 237 227 210 176 156 149 266 281 287 326 323 307 297 311 313 312 297 299 296 286 290 296 293 285 281 277 271 273 266 262 260 267 242 191 176 139
212 253 262 277 153 246 308 288 279 278 246 225 265 245 228 157 171 183 257 273 284 297 302 307 301 292 293 291 295 296 299 286 293 288 278 273 291 297 297 278 262 254 253 256 258 251 196 150 210
218 205 225 237 312 171 320 290 322 288 267 252 308 297 132 175 194 241 290 292 291 294 305 301 304 303 299 291 295 295 296 293 295 291 297 298 309 302 311 316 287 249 224 246 232 256 255 180 210
257 111 108 274 42 265 36 281 300 316 293 235 221 165 168 183 218 278 292 289 277 298 315 313 311 308 303 303 297 293 289 291 294 301 299 302 298 321 345 339 321 310 332 304 297 320 359 215 181
215 108 109 99 92 34 17 67 270 6 296 272 234 209 214 220 258 292 292 276 311 326 309 305 302 298 296 289 287 291 293 288 290 295 297 296 291 352 355 348 327 315 352 356 325 321 343 306 276
137 83 66 56 85 358 249 131 274 219 215 293 256 222 211 240 292 302 287 304 318 315 314 313 304 295 299 290 293 285 288 292 289 290 295 286 321 318 335 344 332 310 343 2 328 304 18 352 297
64 55 324 342 10 223 257 5 250 263 235 221 245 230 237 283 301 283 288 314 314 312 316 309 316 307 299 298 295 289 289 289 288 288 286 293 298 299 324 341 330 298 305 352 329 279 51 22 313
176 170 164 215 225 277 19 239 255 217 245 242 266 274 291 276 268 271 285 300 304 315 314 313 309 304 308 303 297 293 283 287 286 288 285 284 290 297 327 339 310 279 344 1 336 332 81 61 300
109 217 130 102 56 37 244 282 290 255 308 310 275 259 267 293 275 278 298 299 302 297 301 310 306 305 304 300 299 291 290 287 285 287 282 283 299 302 308 242 288 316 338 340 60 18 318 23 69
223 159 56 8 71 301 283 277 244 308 285 307 299 290 293 289 286 300 297 302 299 302 307 309 305 292 289 297 294 306 293 293 298 290 290 308 307 336 321 11 349 267 27 37 114 99 324 357 300
181 270 62 112 112 165 290 272 214 214 217 247 273 290 279 281 277 268 289 299 296 297 311 307 307 308 307 308 304 307 305 309 312 309 314 322 328 359 25 317 261 20 30 43 76 73 69 47 37
238 201 154 120 267 88 145 271 209 223 236 229 278 296 273 245 261 266 301 297 310 309 312 308 312 318 308 308 312 320 321 321 332 335 2 355 1 8 28 21 62 75 64 53 56 77 54 92 97